Location: San Martino di Castrozza
(46.2667°N, 11.8000°E)
Time: 02:47:29
(UTC+00:00)

ADEOS II - Pass Details

Date: 23 April 2021
Orbit: 798 x 801 km, 98.6° (Epoch: 14 May)

Event Time Altitude Azimuth Distance (km) Brightness Sun altitude
Rises 00:33:10 0° 24° (NNE) 3,318 6.6 -28.4°
Reaches altitude 10° 00:35:51 10° 36° (NE) 2,382 5.5 -28.2°
Maximum altitude 00:40:18 28° 94° (E) 1,479 3.6 -27.9°
Enters shadow 00:41:22 26° 114° (ESE) 1,543 3.5 -27.8°
